Flag for U.S.A. Weather past 2 weeks in Worcester, Massachusetts, U.S.A.

Now
70 °F

Sunny.


Feels Like: 75 °F
Forecast: 63 / 82 °F
Wind: 9 mph from Southwest

Location: Worcester Regional Airport

Current Time: Jul 26, 2014 at 9:31:33 AM

Latest Report: Jul 26, 2014 at 8:54 AM


Visibility: 10 mi

Pressure: 29.99 "Hg

Humidity: 66%

Dew point: 58 °F

Location of WorcesterLocation

Historic Weather in Worcester — Graph

°F

Worcester temperature yesterday

Maximum temperature yesterday: 76 °F (at 2:54 PM)
Minimum temperature yesterday: 55 °F (at 5:54 AM)
Average temperature yesterday: 67 °F

Past Weeks' High & Low Weather Summary

 TemperatureHumidityPressure
High86 °F (Jul 23, 2:54 PM)100% (Jul 21, 6:54 AM)30.29 "Hg (Jul 21, 6:54 AM)
Low55 °F (Jul 25, 5:54 AM)36% (Jul 18, 4:54 PM)29.78 "Hg (Jul 15, 2:54 PM)
Average70 °F72%30.03 "Hg
* Reported Jul 11 7:54 AM — Jul 26 7:54 AM, Worcester, Weather by CustomWeather, © 2014

Note: Actual official high and low records may vary slightly from our data, if they occured in-between our weather recording intervals... More about our weather records

Advertising

Worcester weather history for previous 24 hours

 ConditionsComfort  
Time TempWeatherWind HumidityBarometerVisibility
7:54 AM
Jul 26
67 °FSunny.12 mph76%29.99 "Hg10 mi
6:54 AM61 °FSunny.7 mph90%29.99 "Hg10 mi
5:54 AM61 °FClear.7 mph87%29.99 "Hg10 mi
4:54 AM60 °FClear.7 mph86%29.98 "Hg10 mi
3:54 AM60 °FClear.7 mph86%29.98 "Hg10 mi
2:54 AM62 °FClear.7 mph80%29.98 "Hg10 mi
1:54 AM62 °FClear.8 mph80%29.99 "Hg10 mi
12:54 AM63 °FClear.7 mph78%30.00 "Hg10 mi
11:54 PM
Jul 25
63 °FClear.8 mph78%30.01 "Hg10 mi
10:54 PM65 °FClear.8 mph76%30.01 "Hg10 mi
9:54 PM66 °FClear.7 mph73%30.00 "Hg10 mi
8:54 PM68 °FSunny.7 mph68%29.99 "Hg10 mi
7:54 PM70 °FSunny.5 mph66%29.98 "Hg10 mi
6:54 PM74 °FSunny.6 mph56%29.97 "Hg10 mi
5:54 PM75 °FSunny.8 mph52%29.98 "Hg10 mi
4:54 PM76 °FSunny.9 mph50%29.97 "Hg10 mi
3:54 PM76 °FPassing clouds.9 mph48%29.98 "Hg10 mi
2:54 PM76 °FPassing clouds.9 mph45%29.97 "Hg10 mi
1:54 PM75 °FPassing clouds.9 mph48%29.98 "Hg10 mi
12:54 PM73 °FPassing clouds.5 mph51%29.99 "Hg10 mi
11:54 AM72 °FSunny.8 mph52%30.00 "Hg10 mi
10:54 AM70 °FSunny.5 mph53%30.01 "Hg10 mi
9:54 AM69 °FSunny.3 mph47%30.01 "Hg10 mi
Weather by CustomWeather, © 2014

See weather overviewHow to use our weather pages